Theta_e
320 320 320 320 319 319 318 318 318 318 318 318 318 318 318 318 318 318 318 318 318 317 317 318 319 321 317 310 311 323 342 336 319 316 314 312 310 309 306 307 306 305 306 304 308 309 313
320 319 320 319 319 318 318 318 318 318 317 317 317 317 317 317 317 317 317 316 316 316 317 318 320 322 315 307 318 328 325 316 317 315 314 312 311 310 308 308 307 307 306 305 307 309 312
319 319 318 319 318 318 318 318 318 318 317 317 316 316 316 316 316 317 316 316 315 316 317 319 322 320 310 311 317 320 318 315 316 316 312 312 313 311 310 308 308 307 305 306 307 310 310
319 318 317 319 318 318 318 318 318 318 317 317 316 315 316 316 316 316 316 315 316 316 318 322 323 317 306 314 318 316 317 315 316 316 316 315 313 311 310 310 308 305 305 301 305 308 309
318 318 317 318 318 318 317 317 317 317 317 317 316 315 315 315 315 315 314 315 316 319 322 323 317 312 306 320 316 319 318 315 314 315 315 313 313 309 309 306 304 303 300 301 302 307 310
318 317 317 318 318 317 317 317 317 317 317 317 316 315 314 314 315 314 313 315 321 321 321 320 317 309 313 312 315 314 316 316 312 312 311 310 310 307 306 305 297 300 300 300 300 304 307
317 316 317 318 318 317 317 317 315 315 314 315 315 314 314 314 314 312 312 312 312 310 311 309 307 307 309 315 317 312 314 313 311 310 304 306 305 302 305 305 303 303 300 299 301 305 305
316 316 316 317 317 316 316 316 314 313 313 313 314 314 314 313 312 312 310 310 308 309 304 309 309 309 312 315 309 313 314 308 307 303 304 303 302 305 305 304 302 301 300 300 302 302 304
316 316 316 316 315 315 315 314 314 314 313 312 312 313 313 312 311 309 305 309 311 310 304 307 309 309 311 313 308 310 311 308 305 302 302 301 302 304 303 301 302 301 301 300 300 301 302
315 315 314 314 312 313 314 313 313 313 313 311 311 312 312 310 308 305 307 309 309 309 300 301 304 309 311 312 307 315 312 309 305 302 302 302 303 303 302 301 302 298 302 301 298 299 297
316 315 314 312 312 313 312 312 312 313 312 311 311 312 311 309 306 305 306 308 310 308 288 301 305 314 311 309 309 308 311 308 303 303 303 301 301 301 301 302 303 300 301 299 298 298 297
313 313 312 311 312 313 312 311 312 312 311 311 311 311 309 306 306 307 307 308 310 298 288 300 306 305 305 306 306 308 308 310 307 303 303 303 304 304 303 301 302 304 302 300 300 299 293
313 312 311 310 311 312 311 311 312 312 310 311 310 309 306 307 306 307 307 309 298 291 300 301 301 303 304 303 303 305 304 303 301 297 297 300 302 303 303 300 302 302 301 294 290 291 290
312 311 311 310 310 311 310 311 311 310 309 309 307 306 305 306 308 307 309 304 292 296 296 304 304 303 301 302 303 302 302 300 302 301 297 296 294 301 303 302 300 299 300 297 287 289 291
311 311 309 309 309 310 310 311 310 309 308 307 305 303 305 309 307 306 307 296 295 297 302 302 303 299 298 301 301 302 302 301 304 304 299 296 296 302 301 302 303 298 296 301 296 294 294
310 310 309 308 308 309 309 310 310 309 308 306 301 300 306 309 309 309 303 295 299 302 306 305 298 301 298 300 301 300 300 304 303 305 308 303 296 300 299 303 305 302 303 298 299 291 288
309 308 307 307 308 308 309 310 310 309 307 304 301 300 308 310 310 307 296 297 301 306 308 304 301 299 300 298 300 300 299 303 306 303 305 304 302 299 299 298 299 300 300 300 301 298 293
307 307 307 307 307 308 309 309 309 308 305 301 299 295 306 311 305 303 300 301 302 306 309 307 306 304 301 302 300 300 301 302 306 305 301 305 304 298 298 300 300 301 302 304 297 294 296
306 307 307 306 307 308 308 309 309 308 305 300 297 297 307 308 300 300 300 300 303 303 306 306 305 306 306 303 299 302 304 306 305 304 303 303 301 295 295 298 300 299 299 301 301 300 296
305 306 304 306 306 306 307 308 309 307 305 300 298 295 302 303 300 297 296 298 299 304 302 304 306 307 304 302 303 302 301 304 304 304 311 309 300 301 296 298 300 297 297 300 301 296 296
305 304 304 305 305 306 307 307 307 307 304 300 298 296 296 295 297 296 295 297 297 297 302 303 305 299 301 299 300 298 301 302 304 307 303 307 300 298 298 297 298 298 298 298 298 299 295
304 305 304 304 305 305 306 307 306 306 303 300 296 296 296 296 295 295 295 294 295 296 298 298 298 299 303 301 301 299 301 301 298 303 301 302 299 298 295 298 298 296 299 299 299 299 299
304 304 304 304 305 305 306 307 305 306 302 298 297 297 297 292 293 293 294 293 293 295 298 300 298 298 300 305 308 309 308 306 306 300 299 298 298 297 293 298 297 293 298 299 300 301 300
304 304 304 305 305 305 305 306 305 305 301 298 297 296 295 291 293 293 293 294 293 295 294 297 299 298 305 310 312 310 308 307 306 304 302 298 298 298 294 296 287 299 304 303 300 302 304
304 303 303 303 304 305 305 305 305 306 303 300 297 297 295 291 292 292 293 294 295 296 294 296 299 304 303 307 303 298 301 302 303 304 304 301 299 295 293 292 296 298 301 301 300 300 303
303 303 302 302 302 303 303 305 305 306 303 299 298 298 296 292 290 294 293 294 292 293 294 296 301 303 306 307 301 292 291 294 295 298 306 304 302 296 295 291 289 299 305 307 306 296 305
304 303 303 303 303 303 303 303 303 304 303 299 297 297 295 292 295 295 293 293 296 294 292 294 295 298 304 302 296 294 293 298 292 291 295 297 297 292 292 293 295 301 307 308 295 299 306
303 302 302 302 303 303 303 303 303 303 303 300 297 297 294 291 292 294 296 295 296 295 291 294 295 297 300 298 297 296 295 298 296 298 297 295 291 290 291 289 288 305 305 300 307 308 309
303 303 302 303 303 303 303 303 303 303 303 300 295 298 299 292 291 295 297 298 297 297 295 295 294 294 296 300 299 300 297 298 297 292 303 295 300 296 297 296 304 306 305 309 311 309 308
Wind_Speed
17 18 18 19 19 18 18 18 18 19 19 19 20 22 23 22 22 20 18 16 14 12 9 8 9 9 3 2 1 3 9 9 5 2 2 2 4 2 3 2 2 1 5 3 8 8 9
17 17 18 18 17 18 18 19 20 20 20 20 21 22 22 23 23 22 19 17 13 10 8 6 7 9 2 4 2 9 10 6 3 2 2 0 3 1 4 2 1 1 6 8 8 10 8
17 18 18 16 17 17 18 19 20 20 21 21 21 22 23 24 24 24 23 19 13 8 6 4 5 2 1 1 3 8 9 4 5 3 2 1 2 0 2 4 2 2 5 10 8 11 8
17 17 17 16 16 17 18 19 19 20 21 22 23 24 25 26 26 25 25 21 11 5 0 2 1 1 5 0 1 5 6 4 3 3 1 1 1 3 1 3 3 2 1 9 8 11 6
16 16 16 16 15 16 17 18 19 20 21 22 23 24 26 27 28 27 25 19 2 5 4 3 0 2 3 2 3 2 4 3 3 3 1 4 3 3 3 4 4 1 6 7 6 10 7
16 16 17 18 16 16 17 18 19 20 21 22 23 23 25 27 28 27 24 6 4 5 2 2 1 2 3 2 2 2 2 2 3 5 4 2 3 3 3 6 8 7 5 2 3 7 10
14 14 16 17 17 17 18 18 22 23 24 24 23 23 25 28 28 28 10 3 1 2 1 4 3 4 7 6 1 2 4 6 2 2 3 2 4 6 8 4 2 5 4 3 2 2 10
15 15 16 18 19 17 18 18 21 22 23 25 25 24 25 27 28 24 3 4 4 3 8 8 12 8 7 3 3 2 6 5 4 4 3 3 5 3 5 7 5 5 4 3 3 2 7
13 15 17 17 18 17 18 18 18 19 20 22 25 24 25 27 31 3 5 8 4 3 4 5 5 5 5 9 4 4 8 4 3 5 6 4 2 4 6 6 8 3 4 4 1 3 4
15 17 19 20 21 19 19 20 21 21 20 23 26 23 24 28 2 4 3 4 8 4 3 4 4 4 6 8 4 6 6 4 2 7 5 3 1 6 8 6 4 5 4 5 4 3 5
11 12 14 17 19 17 18 20 21 21 21 22 25 23 21 13 7 4 5 10 6 4 4 1 3 4 3 13 5 4 2 3 5 5 4 3 5 6 5 4 6 2 2 3 2 3 2
13 13 15 15 16 17 18 20 21 21 22 23 25 24 22 1 2 7 10 13 4 1 7 1 4 5 8 5 4 4 4 6 2 3 1 2 2 2 2 5 1 12 5 5 3 1 5
12 13 14 14 15 16 18 19 20 22 24 26 26 27 13 2 3 5 9 3 3 4 3 2 1 2 8 7 5 5 9 8 7 4 5 2 2 1 2 7 5 3 5 2 3 4 2
12 12 13 15 17 17 18 19 20 22 24 26 29 25 3 4 5 7 3 2 4 4 3 3 3 1 9 5 6 4 9 9 4 4 3 6 6 6 5 5 6 5 4 4 3 2 2
11 11 14 16 18 16 17 18 18 20 23 26 25 5 2 4 4 3 2 6 5 4 1 2 2 2 2 1 1 5 7 9 9 10 6 6 5 1 1 3 2 6 5 3 6 2 3
9 11 15 14 15 16 16 17 16 19 22 24 6 4 3 5 4 1 2 4 2 2 2 2 1 1 3 4 1 3 7 4 7 12 7 6 3 1 3 3 9 2 11 4 2 3 4
13 13 13 13 14 14 16 15 16 19 22 16 3 3 2 3 3 1 3 4 3 3 1 1 1 2 1 1 1 1 2 4 6 6 8 8 5 3 4 6 8 6 5 5 4 1 3
12 12 12 12 13 14 15 15 16 19 22 8 4 3 4 1 2 1 3 2 3 1 2 1 2 2 2 2 3 4 6 6 1 9 10 7 6 10 9 3 1 1 4 6 5 5 1
12 13 10 11 13 13 14 12 14 16 13 4 4 4 2 3 2 2 1 2 1 3 4 2 2 1 2 2 3 6 6 2 6 9 10 10 4 6 4 4 3 6 5 3 5 2 8
11 12 12 10 12 13 13 11 10 13 11 1 2 2 2 3 2 2 2 1 1 4 3 2 0 3 2 2 4 5 4 3 1 4 2 6 4 8 10 13 5 7 8 9 6 5 6
11 11 9 9 10 12 13 12 10 12 10 2 2 2 1 2 3 4 2 3 1 1 3 3 5 5 1 1 3 1 3 8 3 5 4 3 7 5 3 4 6 6 14 14 12 7 8
9 11 7 8 9 10 12 12 10 13 8 0 2 1 1 1 4 4 2 1 1 2 2 1 3 6 2 4 2 2 2 4 3 9 3 2 4 4 4 4 5 4 9 12 9 7 10
7 8 9 5 7 9 9 11 10 12 6 2 1 0 3 2 0 1 0 0 2 3 1 2 4 6 2 2 6 4 5 2 5 2 3 4 5 6 5 6 2 7 12 12 7 7 8
5 6 8 8 6 6 9 10 8 8 6 1 2 1 1 1 2 2 1 2 4 3 4 3 6 3 3 9 4 3 6 7 3 5 5 4 1 1 4 9 10 3 1 8 9 5 8
5 2 4 6 7 8 8 8 8 8 5 2 1 1 0 2 3 5 4 3 5 5 6 4 6 3 9 4 0 4 2 5 5 1 2 2 3 2 5 9 2 3 5 8 8 6 6
5 4 2 2 4 5 6 9 9 11 6 3 2 2 1 1 2 2 2 2 4 2 5 3 2 8 4 3 2 3 3 2 3 5 3 4 5 3 2 9 9 3 9 7 6 4 11
7 4 2 2 4 5 5 6 7 6 4 2 2 3 2 3 1 2 3 2 1 1 3 3 6 4 3 4 5 4 5 2 4 3 3 1 3 4 3 7 3 3 7 7 6 1 16
3 3 3 3 4 4 5 6 5 5 5 1 1 2 3 2 5 4 3 4 2 2 3 5 3 2 2 5 5 4 4 6 4 5 3 5 6 4 2 2 6 5 7 7 2 2 14
1 1 1 3 3 4 5 6 6 4 3 2 1 1 2 3 5 2 6 9 7 7 3 2 4 3 2 3 1 1 3 5 5 3 5 5 5 4 7 4 2 3 2 5 3 11 12
Wind_Direction
26 23 20 18 13 11 10 7 5 1 359 356 353 352 349 346 343 341 335 332 326 320 315 312 312 316 279 184 190 133 137 139 133 127 60 79 61 110 103 95 103 119 100 161 145 137 132
23 21 18 13 10 8 8 5 2 359 357 355 352 351 348 344 341 338 336 329 318 313 310 306 310 314 289 168 121 155 151 154 138 136 107 101 69 92 96 88 33 93 98 128 146 142 151
18 18 15 8 7 7 5 3 360 358 354 352 351 350 347 343 340 337 335 327 311 304 307 310 314 322 316 166 121 161 171 172 163 162 90 150 132 334 143 125 28 93 121 130 146 160 155
15 14 13 4 2 2 2 359 357 356 353 350 350 348 346 343 339 336 336 329 309 282 321 298 249 283 249 99 91 173 175 148 172 187 231 196 123 89 2 121 58 107 91 173 148 174 156
11 12 9 359 359 359 355 354 352 352 350 348 348 346 343 340 337 335 335 327 69 138 101 113 167 343 255 315 248 238 202 163 135 148 196 93 92 69 145 165 154 79 184 204 172 192 162
9 8 6 0 357 354 352 351 350 350 348 346 345 343 340 337 333 333 330 305 94 139 98 162 138 272 245 157 225 154 140 148 83 122 120 85 68 156 138 192 201 177 175 183 194 166 193
6 5 360 358 355 352 349 349 351 350 347 344 341 339 337 333 329 330 338 274 256 169 19 209 222 266 282 292 222 182 149 128 106 97 156 69 208 200 193 195 112 145 157 173 180 199 203
2 359 356 356 354 350 346 349 349 347 345 341 339 336 335 332 327 322 268 67 76 355 298 237 246 253 254 319 335 193 152 158 181 174 142 171 206 177 146 156 146 160 176 177 142 54 213
356 352 350 351 350 347 346 344 341 340 341 339 336 334 335 333 323 354 328 122 6 164 260 290 206 207 203 174 227 238 179 158 167 162 190 218 115 133 156 154 153 164 194 177 186 113 80
348 347 347 348 348 344 344 343 340 340 339 340 333 332 335 334 282 340 282 20 338 218 309 270 225 231 149 144 224 198 184 146 170 203 177 228 129 161 151 174 186 177 180 145 139 202 231
345 349 346 344 342 338 338 337 335 335 337 337 326 331 334 329 309 269 20 327 331 228 314 89 162 129 151 175 141 155 137 118 197 172 208 160 173 168 178 192 185 107 120 82 77 118 235
334 338 339 340 337 337 336 334 332 332 336 330 325 328 336 124 208 266 316 318 192 225 250 348 140 171 157 196 139 116 134 76 73 112 321 279 299 222 139 85 72 141 101 67 73 123 250
328 331 336 337 337 336 333 333 331 333 334 328 324 326 324 205 318 330 310 287 162 202 345 32 75 162 179 175 148 164 166 167 189 166 219 262 215 286 160 118 112 152 155 234 204 195 283
343 340 336 336 338 336 335 334 332 332 332 328 325 320 187 236 279 325 290 157 196 223 238 335 3 326 201 158 201 151 158 188 162 131 140 206 205 197 169 225 195 184 212 177 217 214 59
329 331 332 333 334 337 336 332 331 332 330 328 320 326 283 309 251 198 193 200 207 213 326 341 118 110 108 95 240 190 207 219 195 176 215 176 245 92 49 121 218 145 199 88 109 75 254
313 325 323 325 327 332 333 335 336 331 332 330 316 329 317 344 152 234 172 227 247 226 356 348 28 55 110 13 30 217 190 208 210 198 197 176 218 27 123 118 60 233 138 151 129 192 249
314 321 322 324 329 331 329 334 337 336 338 330 327 335 75 327 281 314 193 219 267 246 238 108 134 3 117 6 337 269 293 266 212 175 196 163 210 157 178 207 190 150 179 70 113 201 218
313 313 318 326 329 331 329 334 344 344 342 33 346 305 20 275 204 343 186 193 321 258 300 109 151 211 252 297 227 230 229 228 64 154 181 188 197 214 204 109 180 239 200 179 213 192 190
321 317 311 328 328 330 330 331 342 345 4 319 341 292 327 283 215 194 319 238 301 4 33 54 129 106 152 208 288 241 235 230 185 185 172 176 202 199 174 173 157 215 181 150 106 103 207
318 312 317 328 331 330 332 328 338 344 348 282 295 316 325 51 33 30 8 339 160 27 107 0 7 81 13 267 248 274 294 10 342 253 135 139 156 205 210 223 153 182 189 188 194 210 236
317 317 319 328 336 334 329 335 340 346 345 263 347 75 19 10 60 4 305 330 296 70 17 326 131 62 58 275 297 290 347 332 342 35 358 217 217 197 238 201 174 176 184 176 201 203 220
317 325 326 337 333 337 330 330 343 357 346 170 328 315 125 349 326 319 344 118 264 328 282 3 83 355 186 186 151 4 338 18 11 330 286 273 213 152 173 173 200 190 178 185 201 197 240
304 321 323 325 337 344 341 327 2 7 356 38 38 106 280 65 79 250 294 177 83 312 210 277 41 335 293 1 275 233 210 267 269 280 301 302 162 175 206 174 144 253 214 197 191 207 230
281 314 351 3 4 353 360 14 31 36 45 353 52 297 250 208 235 201 290 325 285 281 282 294 317 252 17 325 255 229 233 253 189 87 232 305 229 246 145 150 225 84 299 209 182 178 220
272 291 340 346 357 15 20 22 33 15 57 33 61 321 319 260 284 270 259 258 287 284 261 249 269 326 323 301 246 337 288 220 187 150 59 100 276 179 198 213 325 126 170 151 170 197 186
308 262 281 359 14 6 2 22 36 358 117 84 40 333 322 308 220 314 280 274 277 273 274 252 337 321 263 223 146 213 261 312 310 301 195 80 35 209 255 234 226 152 174 166 149 223 169
341 348 329 25 14 17 22 32 32 32 46 84 65 358 282 262 227 248 232 257 257 229 281 311 346 334 314 188 195 185 207 201 239 255 318 340 237 299 236 226 298 253 151 153 187 71 165
347 60 49 27 1 8 24 29 36 42 33 78 59 2 350 301 275 231 251 228 197 211 275 3 266 152 267 215 211 190 199 192 220 228 236 187 171 159 159 237 254 343 136 190 70 14 153
289 323 343 356 343 354 16 26 23 43 66 102 107 31 352 257 289 276 262 262 246 256 308 310 336 314 301 291 267 243 188 181 201 238 198 219 206 183 200 202 162 277 270 304 218 161 149